Regional Weather Roundup
Issued by NWS

Home | Current Version | Previous Version | Text Only | Print | Product List | Glossary Off
Versions: 1 2 3 4 5 6 7 8 9 10 11 12 13 14 15 16 17 18 19 20 21 22 23 24 25 26 27 28 29 30 31 32 33 34 35 36 37 38 39 40 41 42 43 44 45 46 47 48 49 50

000
ASUS43 KLSX 061607
RWRMO

WEATHER SUMMARY FOR MISSOURI
NATIONAL WEATHER SERVICE SPRINGFIELD MO
1100 AM CDT WED MAY 06 2015

NOTE: "FAIR" INDICATES FEW OR NO CLOUDS BELOW 12,000 FEET WITH NO
       SIGNIFICANT WEATHER AND/OR OBSTRUCTIONS TO VISIBILITY.
       CURRENT SKY AND/OR WEATHER CONDITIONS ARE NOT AVAILABLE FOR
       CHILLICOTHE AND FARMINGTON.

MOZ001>031-035>038-043-044-053-054-061700-
...NORTHERN AND WESTERN MISSOURI...

CITY           SKY/WX    TMP DP  RH WIND       PRES   REMARKS
KANSAS CTY INT CLOUDY    69  60  73 S20       29.96R
KANSAS C DTWN  CLOUDY    70  59  68 S20G26    29.97R
LEE`S SUMMIT   CLOUDY    66  58  75 S17G24    30.00R
ST JOSEPH      CLOUDY    70  60  70 S17       29.93S
CHILLICOTHE      N/A     71  59  65 S12G25    30.00R
KIRKSVILLE     MOSUNNY   77  60  55 S20G28    30.02F

$$
MOZ066>068-077>081-088>096-101>105-061700-
...SOUTHWEST MISSOURI...

CITY           SKY/WX    TMP DP  RH WIND       PRES   REMARKS
SPRINGFIELD    CLOUDY    65  60  84 S9        30.08F
JOPLIN         LGT RAIN  65  60  84 S17G30    30.01R

$$
MOZ032>034-039>042-045>050-055>058-069>072-061700-
...CENTRAL MISSOURI...

CITY           SKY/WX    TMP DP  RH WIND       PRES   REMARKS
COLUMBIA       MOSUNNY   77  60  55 S16G24    30.06F
JEFFERSON CITY SUNNY     78  59  51 S16G24    30.06S
ROLLA          MOSUNNY   78  58  49 S24G31    30.09S
SEDALIA        CLOUDY    70  58  65 S21       30.04R
WHITEMAN AFB   DRIZZLE   67  60  77 S18       30.01R
WARRENSBURG    CLOUDY    68  55  64 S18G25    30.01R
OSAGE BEACH    MOSUNNY   73  55  53 S15       30.08S

$$
MOZ051-052-059>065-061700-
...EAST CENTRAL MISSOURI...

CITY           SKY/WX    TMP DP  RH WIND       PRES   REMARKS
ST LOUIS INTL  PTSUNNY   82  56  40 S10G18    30.13S
SPIRIT OF STL  SUNNY     80  56  43 S9G20     30.11S
ST CHARLES     SUNNY     81  55  40 S15G26    30.11F

$$
MOZ072>076-082>087-097>100-106>115-061700-
...SOUTH CENTRAL AND SOUTHEAST MISSOURI...

CITY           SKY/WX    TMP DP  RH WIND       PRES   REMARKS
CAPE GIRARDEAU SUNNY     81  58  45 S9        30.16S
FARMINGTON     SUNNY     77  55  47 S17G23    30.19S
POPLAR BLUFF   LGT RAIN  80  55  42 S17G23    30.13F
WEST PLAINS    SUNNY     74  55  51 SW10      30.14S

$$



USA.gov is the U.S. government's official web portal to all federal, state and local government web resources and services.